カタログに戻る

STARLINK-37770

運用中通信SSO
NORAD 69225·PAYLOAD·🇺🇸 United States

打ち上げ May 26, 2026 から Vandenberg Space Force Base

Loading…

次のパス (今後24時間)

TLE

最新Source: CelesTrak SupGP

元期: Sep 14, 2026, 14:31 UTC

1 69225C 26115Q   26257.60534722 -.00033854  00000+0 -10508-2 0  2577
2 69225  97.2833 273.8045 0001752  99.9336  66.8523 15.33460675    12

AllMySatでSTARLINK-37770をリアルタイム追跡

Download on the App Store